timestamp,surface_pressure_avg,surface_temp_avg,battery_voltage,lat,long
2021-12-09 00:09:00+00:00,255.5747,7.4,12.73,47.84626,-54.09684
2021-12-09 00:19:00+00:00,258.3647,7.5,12.73,47.84626,-54.09684
2021-12-09 00:29:00+00:00,255.4114,7.8,12.73,47.84626,-54.09684
2021-12-09 00:39:00+00:00,261.27299999999997,7.9,12.73,47.84626,-54.09684
2021-12-09 00:49:00+00:00,272.7214,7.89,12.73,47.84626,-54.09684
2021-12-09 00:59:00+00:00,281.9948,8.0,12.73,47.84626,-54.09684
2021-12-09 01:09:00+00:00,282.9914,8.0,12.73,47.84626,-54.09684
2021-12-09 01:19:00+00:00,294.2814,8.0,12.65,47.84626,-54.09684
2021-12-09 01:29:00+00:00,309.4963,8.0,12.65,47.84626,-54.09684
2021-12-09 01:39:00+00:00,319.1814,8.0,12.65,47.84626,-54.09684
2021-12-09 01:49:00+00:00,321.2397,8.05,12.65,47.84626,-54.09684
2021-12-09 01:59:00+00:00,326.96299999999997,8.06,12.65,47.84626,-54.09684
2021-12-09 02:09:00+00:00,337.3496,8.08,12.65,47.84626,-54.09684
2021-12-09 02:19:00+00:00,346.5196,8.1,12.65,47.84626,-54.09684
2021-12-09 02:29:00+00:00,349.5813,8.1,12.65,47.84626,-54.09684
2021-12-09 02:39:00+00:00,351.7413,8.1,12.65,47.84626,-54.09684
2021-12-09 02:49:00+00:00,352.8262,8.1,12.65,47.84626,-54.09684
2021-12-09 02:59:00+00:00,359.1896,8.1,12.65,47.84626,-54.09684
2021-12-09 03:09:00+00:00,365.9963,8.1,12.65,47.84626,-54.09684
2021-12-09 03:19:00+00:00,363.5596,8.1,12.65,47.84626,-54.09684
2021-12-09 03:29:00+00:00,361.81300000000016,8.1,12.65,47.84626,-54.09684
2021-12-09 03:39:00+00:00,362.6562,8.1,12.65,47.84626,-54.09684
2021-12-09 03:49:00+00:00,366.1146,8.1,12.65,47.84626,-54.09684
2021-12-09 03:59:00+00:00,370.1379,8.16,12.65,47.84626,-54.09684
2021-12-09 04:09:00+00:00,360.1813,8.1,12.65,47.84626,-54.09684
2021-12-09 04:19:01+00:00,351.31300000000016,8.1,12.65,47.84626,-54.09684
2021-12-09 04:29:01+00:00,348.0679,8.1,12.65,47.84626,-54.09684
2021-12-09 04:39:01+00:00,345.9747,8.1,12.65,47.84626,-54.09684
2021-12-09 04:49:01+00:00,338.2629,8.1,12.65,47.84626,-54.09684
2021-12-09 04:59:01+00:00,329.403,8.1,12.65,47.84626,-54.09684
2021-12-09 05:09:01+00:00,331.288,8.1,12.65,47.84626,-54.09684
2021-12-09 05:19:00+00:00,321.5647,8.1,12.65,47.84626,-54.09684
2021-12-09 05:29:00+00:00,312.928,8.1,12.65,47.84626,-54.09684
2021-12-09 05:39:00+00:00,316.0163,8.1,12.65,47.84626,-54.09684
2021-12-09 05:49:00+00:00,315.6863,8.1,12.65,47.84626,-54.09684
2021-12-09 05:59:00+00:00,302.208,8.1,12.65,47.84626,-54.09684
2021-12-09 06:09:00+00:00,291.8347,8.0,12.65,47.84626,-54.09684
2021-12-09 06:19:00+00:00,289.8764,8.0,12.65,47.84626,-54.09684
2021-12-09 06:29:00+00:00,281.7581,8.0,12.65,47.84626,-54.09684
2021-12-09 06:39:00+00:00,263.4498,8.0,12.65,47.84626,-54.09684
2021-12-09 06:49:00+00:00,262.0697,8.0,12.65,47.84626,-54.09684
2021-12-09 06:59:00+00:00,258.7481,7.99,12.65,47.84626,-54.09684
2021-12-09 07:09:00+00:00,241.8914,7.98,12.65,47.84626,-54.09684
2021-12-09 07:19:00+00:00,229.0681,7.9,12.65,47.84626,-54.09684
2021-12-09 07:29:00+00:00,240.3231,7.9,12.65,47.84626,-54.09684
2021-12-09 07:39:00+00:00,238.4364,7.9,12.65,47.84626,-54.09684
2021-12-09 07:49:00+00:00,227.1964,7.9,12.65,47.84626,-54.09684
2021-12-09 07:59:00+00:00,227.0081,7.9,12.65,47.84626,-54.09684
2021-12-09 08:09:00+00:00,230.4381,7.9,12.65,47.84626,-54.09684
2021-12-09 08:19:00+00:00,222.8048,7.9,12.65,47.84626,-54.09684
2021-12-09 08:29:00+00:00,217.2964,7.89,12.65,47.84626,-54.09684
2021-12-09 08:39:00+00:00,225.0314,7.89,12.65,47.84626,-54.09684
2021-12-09 08:49:00+00:00,226.4547,7.88,12.65,47.84626,-54.09684
2021-12-09 08:59:00+00:00,215.2464,7.8,12.65,47.84626,-54.09684
2021-12-09 09:09:00+00:00,202.7381,7.7,12.65,47.84626,-54.09684
2021-12-09 09:19:00+00:00,207.2731,7.5,12.65,47.84626,-54.09684
2021-12-09 09:29:00+00:00,217.5064,7.21,12.65,47.84626,-54.09684
2021-12-09 09:39:00+00:00,211.6614,6.75,12.65,47.84626,-54.09684
2021-12-09 09:49:00+00:00,207.8265,5.5,12.65,47.84626,-54.09684
2021-12-09 09:59:00+00:00,225.0898,5.41,12.65,47.84626,-54.09684
2021-12-09 10:09:00+00:00,233.8864,6.2,12.65,47.84626,-54.09684
2021-12-09 10:19:01+00:00,216.9314,6.3,12.65,47.84626,-54.09684
2021-12-09 10:29:01+00:00,210.5048,6.4,12.65,47.84626,-54.09684
2021-12-09 10:39:01+00:00,235.1547,6.5,12.65,47.84626,-54.09684
2021-12-09 10:49:01+00:00,246.1464,6.6,12.65,47.84626,-54.09684
2021-12-09 10:59:01+00:00,236.5898,6.6,12.65,47.84626,-54.09684
2021-12-09 11:09:01+00:00,245.9664,6.7,12.65,47.84626,-54.09684
2021-12-09 11:19:01+00:00,267.5048,6.8,12.65,47.84626,-54.09684
2021-12-09 11:29:01+00:00,259.1497,6.86,12.65,47.84626,-54.09684
2021-12-09 11:39:01+00:00,247.5398,6.89,12.65,47.84626,-54.09684
2021-12-09 11:49:01+00:00,270.0714,6.99,12.65,47.84626,-54.09684
2021-12-09 11:59:01+00:00,279.6797,7.1,12.65,47.84626,-54.09684
2021-12-09 12:09:01+00:00,266.6114,7.06,12.65,47.84626,-54.09684
2021-12-09 12:19:00+00:00,268.6281,7.0,12.65,47.84626,-54.09684
2021-12-09 12:29:00+00:00,292.8214,7.0,12.65,47.84626,-54.09684
2021-12-09 12:39:00+00:00,302.4664,7.0,12.65,47.84626,-54.09684
2021-12-09 12:49:00+00:00,297.6198,7.08,12.65,47.84626,-54.09684
2021-12-09 12:59:00+00:00,298.0147,7.1,12.65,47.84626,-54.09684
2021-12-09 13:09:00+00:00,309.7463,7.1,12.65,47.84626,-54.09684
2021-12-09 13:19:00+00:00,308.0464,7.09,12.65,47.84626,-54.09684
2021-12-09 13:29:00+00:00,312.9213,7.1,12.65,47.84626,-54.09684
2021-12-09 13:39:00+00:00,325.0547,7.1,12.65,47.84626,-54.09684
2021-12-09 13:49:00+00:00,334.3646,6.98,12.65,47.84626,-54.09684
2021-12-09 13:59:00+00:00,336.588,7.03,12.65,47.84626,-54.09684
2021-12-09 14:09:00+00:00,348.55300000000005,7.1,12.65,47.84626,-54.09684
2021-12-09 14:19:00+00:00,373.8379,7.16,12.65,47.84626,-54.09684
2021-12-09 14:29:00+00:00,375.8363,7.2,12.65,47.84626,-54.09684
2021-12-09 14:39:00+00:00,356.2446,7.2,12.65,47.84626,-54.09684
2021-12-09 14:49:00+00:00,356.1546,7.25,12.65,47.84626,-54.09684
2021-12-09 14:59:00+00:00,369.1313,7.29,12.65,47.84626,-54.09684
2021-12-09 15:09:00+00:00,366.8796,7.3,12.65,47.84626,-54.09684
2021-12-09 15:19:01+00:00,358.82300000000015,7.3,12.73,47.84626,-54.09684
2021-12-09 15:29:01+00:00,363.8462,7.3,12.73,47.84626,-54.09684
2021-12-09 15:39:01+00:00,373.9879,7.3,12.73,47.84626,-54.09684
2021-12-09 15:49:01+00:00,383.5279,7.3,12.73,47.84626,-54.09684
2021-12-09 15:59:01+00:00,385.9295,7.45,12.73,47.84626,-54.09684
2021-12-09 16:09:01+00:00,397.7379,7.6,12.73,47.84626,-54.09684
2021-12-09 16:19:00+00:00,390.9095,7.6,12.73,47.84626,-54.09684
2021-12-09 16:29:00+00:00,375.7496,7.6,12.73,47.84626,-54.09684
2021-12-09 16:39:00+00:00,378.0146,7.5,12.73,47.84626,-54.09684
2021-12-09 16:49:00+00:00,376.3214,7.4,12.73,47.84626,-54.09684
2021-12-09 16:59:00+00:00,349.3946,7.4,12.73,47.84626,-54.09684
2021-12-09 17:09:00+00:00,336.2530000000001,7.3,12.73,47.84626,-54.09684
2021-12-09 17:19:01+00:00,348.3246,7.3,12.65,47.84626,-54.09684
2021-12-09 17:29:01+00:00,337.2247,7.1,12.65,47.84626,-54.09684
2021-12-09 17:39:01+00:00,321.393,7.1,12.65,47.84626,-54.09684
2021-12-09 17:49:01+00:00,341.9612,7.1,12.65,47.84626,-54.09684
2021-12-09 17:59:01+00:00,349.9764,7.1,12.65,47.84626,-54.09684
2021-12-09 18:09:01+00:00,327.0747,7.11,12.65,47.84626,-54.09684
2021-12-09 18:19:00+00:00,314.973,7.2,12.65,47.84626,-54.09684
2021-12-09 18:29:00+00:00,319.8514,7.2,12.65,47.84626,-54.09684
2021-12-09 18:39:00+00:00,306.9413,7.24,12.65,47.84626,-54.09684
2021-12-09 18:49:00+00:00,292.5296,7.2,12.65,47.84626,-54.09684
2021-12-09 18:59:00+00:00,289.6981,7.17,12.65,47.84626,-54.09684
2021-12-09 19:09:00+00:00,281.9114,7.13,12.65,47.84626,-54.09684
2021-12-09 19:19:00+00:00,264.4464,6.04,12.65,47.84626,-54.09684
2021-12-09 19:29:00+00:00,259.0464,6.62,12.65,47.84626,-54.09684
2021-12-09 19:39:00+00:00,252.4998,6.89,12.65,47.84626,-54.09684
2021-12-09 19:49:00+00:00,251.3465,7.03,12.65,47.84626,-54.09684
2021-12-09 19:59:00+00:00,251.5381,7.1,12.65,47.84626,-54.09684
2021-12-09 20:09:00+00:00,239.7231,6.77,12.65,47.84626,-54.09684
2021-12-09 20:19:00+00:00,227.1598,6.69,12.57,47.84626,-54.09684
2021-12-09 20:29:00+00:00,221.9114,6.2,12.57,47.84626,-54.09684
2021-12-09 20:39:00+00:00,218.1431,6.1,12.57,47.84626,-54.09684
2021-12-09 20:49:00+00:00,214.2298,6.02,12.57,47.84626,-54.09684
2021-12-09 20:59:00+00:00,203.6097,6.22,12.57,47.84626,-54.09684
2021-12-09 21:09:00+00:00,201.7614,6.0,12.57,47.84626,-54.09684
2021-12-09 21:19:00+00:00,200.9247,5.9,12.57,47.84626,-54.09684
2021-12-09 21:29:00+00:00,183.5931,6.04,12.57,47.84626,-54.09684
2021-12-09 21:39:00+00:00,167.5631,6.39,12.57,47.84626,-54.09684
2021-12-09 21:49:00+00:00,185.4515,6.56,12.57,47.84626,-54.09684
2021-12-09 21:59:00+00:00,199.8781,6.54,12.57,47.84626,-54.09684
2021-12-09 22:09:00+00:00,189.5548,6.75,12.57,47.84626,-54.09684
2021-12-09 22:19:00+00:00,187.0531,6.8,12.57,47.84626,-54.09684
2021-12-09 22:29:00+00:00,194.6881,6.9,12.57,47.84626,-54.09684
2021-12-09 22:39:00+00:00,191.1515,6.88,12.57,47.84626,-54.09684
2021-12-09 22:49:00+00:00,186.5915,6.9,12.57,47.84626,-54.09684
2021-12-09 22:59:00+00:00,187.2815,6.84,12.57,47.84626,-54.09684
2021-12-09 23:09:00+00:00,170.7682,6.88,12.57,47.84626,-54.09684
2021-12-09 23:19:00+00:00,165.3381,6.89,12.57,47.84626,-54.09684
2021-12-09 23:29:00+00:00,177.0731,6.9,12.57,47.84626,-54.09684
2021-12-09 23:39:00+00:00,173.5748,6.82,12.57,47.84626,-54.09684
2021-12-09 23:49:00+00:00,174.2982,6.95,12.57,47.84626,-54.09684
2021-12-09 23:59:00+00:00,181.4448,7.05,12.57,47.84626,-54.09684
